Joliet, IL

7:11 PM CDT on May 22, 2018 (GMT -0500)
Joliet Regional

Weather History for KJOT - July, 2014

Change the Weather History Date:

Monday, July 14, 2014

  Actual Average (KARR) Record (KARR)
Temperature  
Mean Temperature 70 °F -  
Max Temperature 79 °F 81 °F 93 °F (2005)
Min Temperature 60 °F 60 °F 50 °F (2002)
Cooling Degree Days 4    
Growing Degree Days 20 (Base 50)    
Moisture  
Dew Point 58 °F    
Average Humidity 68    
Maximum Humidity 96    
Minimum Humidity 32    
Precipitation  
Precipitation 0.00 in - - ()
Sea Level Pressure  
Sea Level Pressure 29.87 in    
Wind  
Wind Speed 3 mph (WNW)    
Max Wind Speed 12 mph    
Max Gust Speed 20 mph    
Visibility 9 miles    
Events      
Averages and records for this station are not official NWS values.
T = Trace of Precipitation, MM = Missing Value Source: NWS Daily Summary

Daily Weather History Graph

Daily Weather History Graph

Search for Another Location

Airport or City:

Astronomy

Jul. 14, 2014 Rise Set
Actual Time 5:31 AM CDT 8:25 PM CDT
Civil Twilight 4:58 AM CDT 8:58 PM CDT
Nautical Twilight 4:16 AM CDT 9:40 PM CDT
Astronomical Twilight 3:27 AM CDT 10:28 PM CDT
Moon 9:52 PM CDT (7/14) 8:16 AM CDT (7/14)
Length of Visible Light 16h 00m
Length of Day
14h 54m
Waning Gibbous, 93% of the Moon is Illuminated
Jul 14
Waning Gibbous
Jul 18
Last Quarter
Jul 26
New
Aug 3
First Quarter
Aug 10
Full

Hourly Weather History & Observations

Time (CDT) Temp. Dew Point Humidity Pressure Visibility Wind Dir Wind Speed Gust Speed Precip Events Conditions
12:15 AM 68.9 °F 62.6 °F 80% 29.93 in 10.0 mi Calm Calm - N/A   Scattered Clouds
12:35 AM 68.9 °F 62.6 °F 80% 29.93 in 10.0 mi Calm Calm - N/A   Scattered Clouds
12:55 AM 68.0 °F 63.1 °F 84% 29.92 in 10.0 mi Calm Calm - N/A   Mostly Cloudy
1:15 AM 68.2 °F 63.0 °F 83% 29.92 in 10.0 mi Calm Calm - N/A   Mostly Cloudy
1:35 AM 67.6 °F 61.7 °F 81% 29.92 in 10.0 mi Calm Calm - N/A   Scattered Clouds
1:55 AM 65.8 °F 61.7 °F 86% 29.91 in 10.0 mi Calm Calm - N/A   Clear
2:15 AM 62.6 °F 60.3 °F 92% 29.91 in 10.0 mi Calm Calm - N/A   Clear
2:35 AM 62.2 °F 60.3 °F 93% 29.91 in 1.0 mi Calm Calm - N/A   Mist
2:55 AM 62.6 °F 61.0 °F 94% 29.90 in 2.0 mi Calm Calm - N/A   Clear
3:15 AM 62.1 °F 60.8 °F 96% 29.90 in 5.0 mi Calm Calm - N/A   Clear
3:35 AM 60.8 °F 59.2 °F 94% 29.90 in 3.0 mi Calm Calm - N/A   Clear
3:55 AM 61.7 °F 60.4 °F 96% 29.90 in 4.0 mi Calm Calm - N/A   Clear
4:15 AM 61.3 °F 60.1 °F 96% 29.89 in 3.0 mi Calm Calm - N/A   Clear
4:35 AM 60.4 °F 59.0 °F 95% 29.89 in 0.8 mi Calm Calm - N/A   Mist
4:55 AM 60.3 °F 59.0 °F 96% 29.89 in 5.0 mi Calm Calm - N/A   Clear
5:15 AM 60.1 °F 58.8 °F 96% 29.88 in 3.0 mi Calm Calm - N/A   Clear
5:35 AM 61.2 °F 59.9 °F 96% 29.88 in 10.0 mi Calm Calm - N/A   Clear
5:55 AM 60.4 °F 59.0 °F 95% 29.89 in 7.0 mi Calm Calm - N/A   Clear
6:15 AM 62.4 °F 60.4 °F 93% 29.88 in 7.0 mi Calm Calm - N/A   Clear
6:35 AM 63.5 °F 61.5 °F 93% 29.89 in 7.0 mi Calm Calm - N/A   Mostly Cloudy
6:55 AM 64.8 °F 61.9 °F 90% 29.88 in 7.0 mi Calm Calm - N/A   Mostly Cloudy
7:15 AM 65.8 °F 62.4 °F 89% 29.88 in 10.0 mi Calm Calm - N/A   Overcast
7:35 AM 66.9 °F 62.6 °F 86% 29.89 in 10.0 mi Calm Calm - N/A   Mostly Cloudy
7:55 AM 68.0 °F 63.0 °F 84% 29.89 in 10.0 mi Calm Calm - N/A   Mostly Cloudy
8:15 AM 68.9 °F 63.0 °F 81% 29.89 in 10.0 mi SSW 3.5 mph - N/A   Scattered Clouds
8:35 AM 70.3 °F 62.6 °F 76% 29.89 in 10.0 mi Calm Calm - N/A   Mostly Cloudy
8:55 AM 71.1 °F 62.1 °F 73% 29.89 in 10.0 mi Calm Calm - N/A   Scattered Clouds
9:15 AM 72.0 °F 62.4 °F 72% 29.89 in 10.0 mi Calm Calm - N/A   Clear
9:35 AM 73.0 °F 61.2 °F 66% 29.88 in 10.0 mi SSW 4.6 mph - N/A   Scattered Clouds
9:55 AM 74.1 °F 57.0 °F 55% 29.88 in 10.0 mi SW 6.9 mph - N/A   Scattered Clouds
10:15 AM 75.2 °F 57.9 °F 55% 29.87 in 10.0 mi SSW 8.1 mph - N/A   Scattered Clouds
10:35 AM 76.5 °F 60.4 °F 58% 29.86 in 10.0 mi SSW 10.4 mph - N/A   Scattered Clouds
10:55 AM 77.0 °F 62.6 °F 61% 29.86 in 10.0 mi WSW 4.6 mph - N/A   Scattered Clouds
11:15 AM 75.6 °F 62.8 °F 64% 29.86 in 10.0 mi SSW 5.8 mph - N/A   Scattered Clouds
11:35 AM 77.0 °F 62.6 °F 61% 29.85 in 10.0 mi WSW 9.2 mph - N/A   Scattered Clouds
11:55 AM 77.0 °F 64.4 °F 65% 29.84 in 10.0 mi SW 10.4 mph 16.1 mph N/A   Clear
12:15 PM 77.0 °F 63.3 °F 63% 29.83 in 10.0 mi SW 10.4 mph 18.4 mph N/A   Clear
12:35 PM 77.2 °F 65.1 °F 66% 29.82 in 10.0 mi WSW 6.9 mph 17.3 mph N/A   Clear
12:55 PM 79.5 °F 64.9 °F 61% 29.82 in 10.0 mi West 9.2 mph 16.1 mph N/A   Scattered Clouds
1:15 PM 78.6 °F 64.9 °F 63% 29.82 in 10.0 mi West 8.1 mph 16.1 mph N/A   Scattered Clouds
1:35 PM 77.2 °F 63.9 °F 63% 29.81 in 10.0 mi NNW 8.1 mph 18.4 mph N/A   Scattered Clouds
1:55 PM 76.8 °F 62.6 °F 61% 29.81 in 10.0 mi NW 11.5 mph 17.3 mph N/A   Scattered Clouds
2:15 PM 77.0 °F 60.3 °F 56% 29.81 in 10.0 mi WNW 9.2 mph 16.1 mph N/A   Scattered Clouds
2:55 PM 77.0 °F 51.8 °F 41% 29.81 in 10.0 mi NW 8.1 mph 17.3 mph N/A   Clear
3:35 PM 77.7 °F 51.6 °F 40% 29.82 in 10.0 mi WNW 10.4 mph 16.1 mph N/A   Clear
3:55 PM 76.8 °F 49.1 °F 38% 29.83 in 10.0 mi NNW 9.2 mph 19.6 mph N/A   Scattered Clouds
4:15 PM 77.9 °F 46.0 °F 32% 29.83 in 10.0 mi WNW 9.2 mph 17.3 mph N/A   Clear
4:35 PM 77.2 °F 46.4 °F 34% 29.83 in 10.0 mi NW 6.9 mph - N/A   Clear
4:55 PM 76.8 °F 48.4 °F 37% 29.82 in 10.0 mi NNW 10.4 mph - N/A   Scattered Clouds
5:15 PM 76.3 °F 48.4 °F 37% 29.82 in 10.0 mi NW 8.1 mph - N/A   Clear
5:35 PM 75.7 °F 47.5 °F 37% 29.82 in 10.0 mi WNW 8.1 mph - N/A   Clear
5:55 PM 75.2 °F 47.7 °F 38% 29.82 in 10.0 mi WNW 6.9 mph - N/A   Clear
6:15 PM 74.3 °F 48.9 °F 41% 29.83 in 10.0 mi WNW 6.9 mph - N/A   Mostly Cloudy
6:35 PM 73.4 °F 49.8 °F 43% 29.84 in 10.0 mi NW 5.8 mph 17.3 mph N/A   Mostly Cloudy
6:55 PM 72.9 °F 50.9 °F 46% 29.85 in 10.0 mi NW 6.9 mph 17.3 mph N/A   Mostly Cloudy
7:15 PM 71.6 °F 51.8 °F 50% 29.86 in 10.0 mi NW 6.9 mph - N/A   Mostly Cloudy
7:35 PM 71.4 °F 51.4 °F 49% 29.86 in 10.0 mi NW 5.8 mph - N/A   Mostly Cloudy
7:55 PM 70.9 °F 50.5 °F 48% 29.86 in 10.0 mi NW 3.5 mph - N/A   Mostly Cloudy
8:15 PM 70.2 °F 51.4 °F 51% 29.87 in 10.0 mi Calm Calm - N/A   Overcast
8:55 PM 68.0 °F 51.8 °F 56% 29.86 in 10.0 mi WNW 3.5 mph - N/A   Clear
9:15 PM 66.2 °F 50.0 °F 56% 29.87 in 10.0 mi WNW 3.5 mph - N/A   Clear
9:35 PM 65.5 °F 50.5 °F 58% 29.87 in 10.0 mi WNW 5.8 mph - N/A   Clear
9:55 PM 64.6 °F 51.1 °F 62% 29.88 in 10.0 mi West 5.8 mph - N/A   Clear
10:15 PM 64.0 °F 50.5 °F 61% 29.88 in 10.0 mi WNW 5.8 mph - N/A   Clear
10:35 PM 63.0 °F 50.9 °F 65% 29.88 in 10.0 mi WNW 4.6 mph - N/A   Clear
11:30 PM - - N/A% 29.89 in 10.0 mi Calm Calm - N/A   Clear
11:55 PM - - N/A% 29.89 in 10.0 mi WNW 3.5 mph - N/A   Clear